Simultaneous Nadir Overpasses (SNOs) Predictions

Prediction of SNOs between GOES-17 and NOAA-19 Satellite Orbit:

Table of predicted SNOs for the next 14.0 days since TLE Epoch: 7/4/2025
Index Date Time (GOES-17) GOES-17 Lat,Lon NOAA-19 Lat,Lon Distance(km) Time Diff (sec)
1 07/06/2025 04:11:03 0.01, -92.39 -0.69, -95.36 340.08 80
2 07/07/2025 03:58:22 0.02, -91.86 -0.08, -92.27 47.54 80
3 07/08/2025 03:48:22 0.02, -91.32 0.52, -89.18 244.88 80
4 07/10/2025 16:04:12 -0.02, -89.99 0.78, -93.55 405.55 80
5 07/11/2025 15:51:31 -0.02, -89.46 0.18, -90.46 113.04 80
6 07/12/2025 15:41:30 -0.03, -88.93 -0.37, -87.35 179.60 80
7 07/13/2025 15:28:49 -0.03, -88.40 -0.98, -84.26 472.38 80
8 07/15/2025 03:57:18 0.03, -87.57 -0.92, -91.71 472.61 80
9 07/16/2025 03:44:37 0.03, -87.04 -0.31, -88.62 179.46 80
10 07/17/2025 03:34:36 0.03, -86.52 0.24, -85.52 113.75 80
11 07/18/2025 03:21:55 0.04, -85.99 0.86, -82.42 407.02 80
